Location: Bourg-d�Oueil
(42.8588°N, 0.4991°E)
Time: 15:20:05
(UTC+00:00)

Cosmos 2100 Rocket - Pass Details

Date: 16 June 2021
Orbit: 955 x 1001 km, 82.9° (Epoch: 03 August)

Event Time Altitude Azimuth Distance (km) Brightness Sun altitude
Rises 21:41:26 0° 350° (N) 3,735 8.3 -16.6°
Reaches altitude 10° 21:43:59 10° 348° (NNW) 2,779 7.5 -16.8°
Maximum altitude 21:50:20 71° 266° (W) 1,050 4.2 -17.4°
Enters shadow 21:54:45 21° 186° (S) 2,075 5.3 -17.9°
